Location: Bruderhein
(53.8035°N, 112.9265°W)
Time: 01:28:58
(UTC+00:00)

STRAND 1 - Pass Details

Date: 08 April 2023
Orbit: 767 x 779 km, 98.4° (Epoch: 31 May)

Event Time Altitude Azimuth Distance (km) Brightness Sun altitude
Rises 04:24:31 0° 8° (N) 3,254 ? -17.3°
Reaches altitude 10° 04:27:27 10° 350° (N) 2,322 ? -17.6°
Maximum altitude 04:30:52 18° 308° (NW) 1,804 ? -18.0°
Drops below altitude 10° 04:34:16 10° 266° (W) 2,313 ? -18.4°
Sets 04:37:12 0° 248° (WSW) 3,236 ? -18.7°
